Weather History for Olathe, KS

Change the Weather History Date:

Wednesday, January 4, 2012

  Actual Average Record
Temperature  
Mean Temperature 43 °F 30 °F  
Max Temperature 52 °F 38 °F 64 °F (1939)
Min Temperature 34 °F 21 °F -15 °F (1959)
Degree Days  
Heating Degree Days 22 35  
Month to date heating degree days 119 140  
Since 1 July heating degree days 1867 2105  
Cooling Degree Days 0 0  
Month to date cooling degree days 0 0  
Year to date cooling degree days 0 0  
Moisture  
Dew Point 24 °F    
Average Humidity 49    
Maximum Humidity 70    
Minimum Humidity 28    
Precipitation  
Precipitation 0.00 in 0.03 in 0.93 in (2005)
Month to date precipitation 0.01 0.12  
Year to date precipitation 0.01 0.12  
Sea Level Pressure  
Sea Level Pressure 30.19 in    
Wind  
Wind Speed 8 mph (WNW)    
Max Wind Speed 18 mph    
Max Gust Speed 24 mph    
Visibility 10 miles    
Events      
T = Trace of Precipitation, MM = Missing Value Source: NWS Daily Summary

Daily Weather History Graph

Daily Weather History Graph

Search for Another Location

Airport:

Trip Planner

Search our weather history database for the weather conditions in past years. The results will help you decide how hot, cold, wet, or windy it might be!

Date:

Astronomy

Jan. 04, 2012 Rise Set
Actual Time 7:37 AM CST 5:10 PM CST
Civil Twilight 7:07 AM CST 5:39 PM CST
Nautical Twilight 6:34 AM CST 6:13 PM CST
Astronomical Twilight 6:02 AM CST 6:45 PM CST
Moon 1:33 PM CST (1/4) 3:27 AM CST (1/4)
Length of Visible Light 10h 31m
Length of Day
9h 32m
Waxing Gibbous, 81% of the Moon is Illuminated
Jan 4
Waxing Gibbous
Jan 9
Full
Jan 16
Last Quarter
Jan 23
New
Jan 30
First Quarter

Hourly Weather History & Observations

Time (CST) Temp. Windchill Dew Point Humidity Pressure Visibility Wind Dir Wind Speed Gust Speed Precip Events Conditions
12:53 AM 39.0 °F 32.8 °F 23.0 °F 53% 30.07 in 10.0 mi WSW 9.2 mph - N/A   Clear
1:53 AM 37.9 °F 32.7 °F 24.1 °F 57% 30.06 in 10.0 mi WSW 6.9 mph - N/A   Clear
2:53 AM 35.1 °F 30.1 °F 24.1 °F 64% 30.09 in 10.0 mi West 5.8 mph - N/A   Clear
3:53 AM 37.0 °F 31.0 °F 26.1 °F 65% 30.09 in 10.0 mi WNW 8.1 mph - N/A   Clear
4:53 AM 37.0 °F 29.8 °F 26.1 °F 65% 30.12 in 10.0 mi NW 10.4 mph - N/A   Clear
5:53 AM 37.9 °F 30.5 °F 26.1 °F 62% 30.15 in 10.0 mi NW 11.5 mph - N/A   Clear
6:53 AM 36.0 °F 29.0 °F 26.1 °F 67% 30.18 in 10.0 mi NW 9.2 mph - N/A   Clear
7:53 AM 35.1 °F 28.6 °F 26.1 °F 70% 30.20 in 10.0 mi NW 8.1 mph - N/A   Clear
8:53 AM 37.9 °F 30.9 °F 28.0 °F 68% 30.24 in 10.0 mi NNW 10.4 mph - N/A   Clear
10:53 AM 44.1 °F 38.1 °F 28.0 °F 53% 30.26 in 10.0 mi NNW 11.5 mph - N/A   Clear
11:53 AM 46.0 °F 40.6 °F 28.0 °F 50% 30.24 in 10.0 mi NW 11.5 mph - N/A   Clear
12:53 PM 48.9 °F - 25.0 °F 39% 30.22 in 10.0 mi NNW 11.5 mph 20.7 mph N/A   Clear
2:53 PM 52.0 °F - 19.0 °F 27% 30.20 in 10.0 mi NW 12.7 mph - N/A   Clear
3:53 PM 51.1 °F - 19.9 °F 29% 30.20 in 10.0 mi NW 8.1 mph - N/A   Clear
4:53 PM 48.9 °F - 19.9 °F 32% 30.22 in 10.0 mi West 3.5 mph - N/A   Clear
5:53 PM 45.0 °F - 19.9 °F 37% 30.24 in 10.0 mi Calm Calm - N/A   Clear
6:53 PM 39.9 °F 37.8 °F 21.0 °F 47% 30.25 in 10.0 mi SW 3.5 mph - N/A   Clear
7:53 PM 43.0 °F 38.8 °F 21.0 °F 42% 30.25 in 10.0 mi SW 6.9 mph - N/A   Clear
8:53 PM 39.9 °F 36.7 °F 21.0 °F 47% 30.24 in 10.0 mi SSW 4.6 mph - N/A   Clear
9:53 PM 39.9 °F 35.8 °F 21.9 °F 49% 30.23 in 10.0 mi SW 5.8 mph - N/A   Clear
10:53 PM 39.9 °F 35.8 °F 24.1 °F 53% 30.21 in 10.0 mi SW 5.8 mph - N/A   Clear